TimeEDT,TemperatureF,Dew PointF,Humidity,Sea Level PressureIn,VisibilityMPH,Wind Direction,Wind SpeedMPH,Gust SpeedMPH,PrecipitationIn,Events,Conditions,WindDirDegrees,DateUTC
12:53 AM,73.9,72.0,93,29.99,10.0,Calm,Calm,-,N/A,,Overcast,0,2012-09-22 04:53:00
1:53 AM,73.0,72.0,96,29.98,10.0,Calm,Calm,-,N/A,,Partly Cloudy,0,2012-09-22 05:53:00
2:53 AM,73.9,72.0,93,29.97,10.0,Calm,Calm,-,N/A,,Partly Cloudy,0,2012-09-22 06:53:00
3:53 AM,73.9,72.0,93,29.96,10.0,North,3.5,-,N/A,,Clear,360,2012-09-22 07:53:00
4:53 AM,73.9,73.0,97,29.96,10.0,Calm,Calm,-,N/A,,Scattered Clouds,0,2012-09-22 08:53:00
5:53 AM,75.9,73.0,91,29.96,10.0,East,5.8,-,0.01,,Scattered Clouds,100,2012-09-22 09:53:00
6:53 AM,75.9,73.0,91,29.99,10.0,East,3.5,-,N/A,,Clear,80,2012-09-22 10:53:00
7:53 AM,75.0,73.9,96,30.00,10.0,Calm,Calm,-,N/A,,Partly Cloudy,0,2012-09-22 11:53:00
8:53 AM,80.1,73.9,81,30.02,10.0,East,3.5,-,N/A,,Mostly Cloudy,80,2012-09-22 12:53:00
9:53 AM,81.0,73.9,79,30.03,10.0,North,3.5,-,N/A,,Mostly Cloudy,10,2012-09-22 13:53:00
10:53 AM,82.9,72.0,69,30.03,10.0,North,3.5,-,N/A,,Mostly Cloudy,10,2012-09-22 14:53:00
11:53 AM,81.0,73.9,79,30.02,10.0,North,9.2,-,N/A,,Mostly Cloudy,10,2012-09-22 15:53:00
12:00 PM,80.6,73.4,79,30.02,10.0,NNE,9.2,-,N/A,,Overcast,30,2012-09-22 16:00:00
12:47 PM,80.6,73.4,79,30.02,10.0,NNE,8.1,-,N/A,,Mostly Cloudy,20,2012-09-22 16:47:00
12:53 PM,81.0,73.9,79,30.02,10.0,NE,9.2,-,N/A,,Mostly Cloudy,50,2012-09-22 16:53:00
1:53 PM,78.1,73.0,84,30.01,10.0,SSE,5.8,-,N/A,,Mostly Cloudy,150,2012-09-22 17:53:00
2:00 PM,78.8,71.6,78,30.00,10.0,SSE,5.8,-,N/A,,Mostly Cloudy,150,2012-09-22 18:00:00
2:53 PM,78.1,73.0,84,29.99,10.0,East,3.5,-,0.00,Rain,Light Rain,100,2012-09-22 18:53:00
3:53 PM,78.8,73.4,83,29.98,10.0,Calm,Calm,-,N/A,Rain,Light Rain,0,2012-09-22 19:53:00
3:58 PM,78.8,73.4,83,29.98,10.0,SE,3.5,-,0.00,Rain,Light Rain,130,2012-09-22 19:58:00
4:53 PM,79.0,73.0,82,29.98,10.0,Calm,Calm,-,0.00,,Overcast,0,2012-09-22 20:53:00
5:53 PM,78.1,73.0,84,29.99,10.0,Calm,Calm,-,N/A,,Mostly Cloudy,0,2012-09-22 21:53:00
6:53 PM,78.1,73.0,84,30.00,10.0,Calm,Calm,-,N/A,,Clear,0,2012-09-22 22:53:00
7:53 PM,77.0,73.0,88,30.00,10.0,Calm,Calm,-,N/A,,Clear,0,2012-09-22 23:53:00
8:53 PM,75.0,73.0,94,30.02,10.0,Calm,Calm,-,N/A,,Clear,0,2012-09-23 00:53:00
9:53 PM,75.0,73.0,94,30.03,10.0,Calm,Calm,-,N/A,,Clear,0,2012-09-23 01:53:00
10:53 PM,75.0,73.0,94,30.04,10.0,Calm,Calm,-,N/A,,Clear,0,2012-09-23 02:53:00
11:53 PM,75.0,73.0,94,30.03,10.0,Calm,Calm,-,N/A,,Clear,0,2012-09-23 03:53:00